Regional Weather Roundup
Issued by NWS

Home | Current Version | Previous Version | Graphics & Text | Print | Product List | Glossary Off
Versions: 1 2 3 4 5 6 7 8 9 10 11 12 13 14 15 16 17 18 19 20 21 22 23 24 25 26 27 28 29 30 31 32 33 34 35 36 37 38 39 40 41 42 43 44 45 46 47 48 49 50

000
ASUS44 KFWD 261210
RWRTX
NORTH TEXAS HOURLY WEATHER ROUNDUP
NATIONAL WEATHER SERVICE FORT WORTH TX
700 AM CDT TUE MAY 26 2015

NOTE: "FAIR" INDICATES FEW OR NO CLOUDS BELOW 12,000 FEET WITH NO
SIGNIFICANT WEATHER AND/OR OBSTRUCTIONS TO VISIBILITY.

TXZ118-119-261300-
DALLAS/FORT WORTH METROPLEX

CITY           SKY/WX    TMP DP  RH WIND       PRES   REMARKS
DFW AIRPORT    CLOUDY    61  61 100 S12       29.94R
6HR MIN TEMP:  58; 6HR MAX TEMP:  61; 6HR PCP: TRACE;

DALLAS LOVE    DRIZZLE   65  63  93 S10       29.96R FOG
6HR MIN TEMP:  64; 6HR MAX TEMP:  66; 6HR PCP: TRACE;

FTW MEACHAM    CLOUDY    65  64  97 S8        29.95R
6HR MIN TEMP:  60; 6HR MAX TEMP:  65;

DAL-EXECUTIVE  CLOUDY    64  63  96 VRB3      29.95R FOG
6HR MIN TEMP:  63; 6HR MAX TEMP:  64;

FTW-ALLIANCE   CLOUDY    63  63 100 S8        29.95R
6HR MIN TEMP:  59; 6HR MAX TEMP:  63; 6HR PCP:  0.01;

FTW-NAS-JRB    CLOUDY    65  64  97 S7        29.96R
6HR MIN TEMP:  60; 6HR MAX TEMP:  65;

FTW-SPINKS     CLOUDY    64  64 100 S6        29.97S FOG
ARLINGTON      CLOUDY    66  62  87 S7        29.96R
6HR MIN TEMP:  62; 6HR MAX TEMP:  66;

GRAND PRAIRIE  CLOUDY    64  64 100 S7        29.97R
ADDISON        CLOUDY    66  64  94 S10       29.96R FOG
MESQUITE       CLOUDY    64  64 100 S9        29.96R
LANCASTER      CLOUDY    64  62  94 S7        29.96R FOG
6HR MIN TEMP:  64; 6HR MAX TEMP:  64;

$$

TXZ091>094-102>105-117-120-121-131>134-261300-
NORTH CENTRAL TEXAS

CITY           SKY/WX    TMP DP  RH WIND       PRES   REMARKS
SHRMAN/DENISON CLOUDY    64  63  98 S8        29.97R
6HR MIN TEMP:  60; 6HR MAX TEMP:  64;

GAINESVILLE    CLOUDY    61  60  99 S7        29.98R FOG
6HR MIN TEMP:  57; 6HR MAX TEMP:  61;

BOWIE          FOG       58  58 100 SW7       29.98R VSB<1/4
6HR MIN TEMP:  56; 6HR MAX TEMP:  58;

BRIDGEPORT     CLOUDY    60  60 100 S3        29.97F FOG
6HR MIN TEMP:  57; 6HR MAX TEMP:  60;

DECATUR        FOG       61  61 100 S7        29.95F VSB 1/2
6HR MIN TEMP:  58; 6HR MAX TEMP:  61;

DENTON         CLOUDY    63  63 100 S10       29.95R
6HR MIN TEMP:  59; 6HR MAX TEMP:  63;

MCKINNEY       CLOUDY    65  63  93 S12       29.95R
6HR MIN TEMP:  61; 6HR MAX TEMP:  65;

GREENVILLE     CLOUDY    64  63  94 SW8       29.96R
ROCKWALL       CLOUDY   N/A N/A N/A S10G17    29.95R
TERRELL        CLOUDY    65  64  97 S10       29.95S
6HR MIN TEMP:  65; 6HR MAX TEMP:  66;

WAXAHACHIE     CLOUDY    64  64 100 S10       29.97R FOG
6HR MIN TEMP:  64; 6HR MAX TEMP:  64; 6HR PCP:  0.01;

CLEBURNE       CLOUDY    64  64 100 S9        29.97S FOG
GRANBURY       CLOUDY    65  64  95 SE5       29.97R FOG
6HR MIN TEMP:  60; 6HR MAX TEMP:  65; 6HR PCP:  0.01;

$$

TXZ083>090-098>101-113>116-127>130-139>142-154-155-261300-
WESTERN NORTH TEXAS

CITY           SKY/WX    TMP DP  RH WIND       PRES   REMARKS
WICHITA FALLS  PTCLDY    58  57  97 S7        29.94S
6HR MIN TEMP:  55; 6HR MAX TEMP:  59;

WF-KICKAPOO    PTCLDY    60  58  92 S6        29.96S
6HR MIN TEMP:  58; 6HR MAX TEMP:  61;

VERNON         PTCLDY    58  54  84 CALM      29.95S
6HR MIN TEMP:  58; 6HR MAX TEMP:  85;

ABILENE        CLEAR     62  55  77 S10       29.94R
6HR MIN TEMP:  60; 6HR MAX TEMP:  63;

ABILENE-DYESS  CLEAR     64  54  70 S12       29.92R
6HR MIN TEMP:  59; 6HR MAX TEMP:  64;

BRECKENRIDGE   PTCLDY    59  58  94 SE5       29.95R
6HR MIN TEMP:  59; 6HR MAX TEMP:  61;

GRAHAM         PTCLDY    55  55 100 CALM      29.94S FOG
6HR MIN TEMP:  55; 6HR MAX TEMP:  57;

MINERAL WELLS  FOG       60  60 100 SE8       29.95R VSB 1/4
6HR MIN TEMP:  57; 6HR MAX TEMP:  60;

STEPHENVILLE   CLOUDY    61  59  94 S6        29.99R VSB 1/4
6HR MIN TEMP:  57; 6HR MAX TEMP:  61; 6HR PCP:  0.01;

COMANCHE       FOG       56  56 100 E3        29.96R VSB<1/4
6HR MIN TEMP:  55; 6HR MAX TEMP:  59;

BROWNWOOD      FOG       61  61 100 S7        29.97R VSB<1/4
COLEMAN        PTCLDY    58  58 100 S5        29.98R FOG
6HR MIN TEMP:  57; 6HR MAX TEMP:  61;

$$

TXZ143>147-156>162-174-175-261300-
CENTRAL TEXAS

CITY           SKY/WX    TMP DP  RH WIND       PRES   REMARKS
WACO           FOG       65  64  97 S8        29.97R VSB 1
6HR MIN TEMP:  65; 6HR MAX TEMP:  66;

WACO-TSTC      CLOUDY    64  64 100 S12       29.97  FOG
WACO-MCGREGOR    N/A    N/A N/A N/A MISG        N/A
HILLSBORO      CLOUDY   N/A N/A N/A S8        29.96R FOG
CORSICANA      CLOUDY    66  63  90 S10       29.97S
6HR MIN TEMP:  66; 6HR MAX TEMP:  67;

MEXIA          CLOUDY    64  64  97 S8        29.97R
6HR MIN TEMP:  64; 6HR MAX TEMP:  65; 6HR PCP:  0.18;

HEARNE         PTCLDY    65  65  98 SE6       29.98R
6HR MIN TEMP:  65; 6HR MAX TEMP:  66; 6HR PCP:  0.01;

CAMERON        MOCLDY    66  65  97 CALM      29.97F
6HR MIN TEMP:  65; 6HR MAX TEMP:  66;

TEMPLE         CLOUDY    64  61  88 SE14      29.98R
6HR MIN TEMP:  64; 6HR MAX TEMP:  66;

KILLEEN        FOG       64  64 100 SE9       29.97S VSB 1/2
6HR MIN TEMP:  63; 6HR MAX TEMP:  65; 6HR PCP:  0.01;

KILLEEN-SKYLRK CLOUDY    66  63  88 SE12      29.98R VSB 1/2
6HR MIN TEMP:  64; 6HR MAX TEMP:  66;

FORT HOOD      FOG       65  65  99 SE7       29.96S VSB 1/4
6HR MIN TEMP:  64; 6HR MAX TEMP:  65;

GATESVILLE     FOG       64  64 100 S6        29.99R VSB 3/4
HAMILTON       DRZL/FOG  63  63 100 SE9       29.99R VSB 1/4
LAMPASAS       FOG       64  63  97 SE5       29.98  VSB 1/4
6HR MIN TEMP:  62; 6HR MAX TEMP:  64;

$$

TXZ095>097-106>112-122>126-135>138-148>153-164>167-261300-
EAST TEXAS

CITY           SKY/WX    TMP DP  RH WIND       PRES   REMARKS
PARIS          MOCLDY    64  59  82 SW5       29.96R
6HR MIN TEMP:  63; 6HR MAX TEMP:  64;

SULPHUR SPRNGS CLOUDY    66  64  94 SW9       29.97S
MOUNT PLEASANT CLOUDY    65  64  96 S8        29.99R
6HR MIN TEMP:  62; 6HR MAX TEMP:  65;

GILMER         CLOUDY    64  63  94 S8        29.97R
6HR MIN TEMP:  62; 6HR MAX TEMP:  64; 6HR PCP:  0.11;

MINEOLA        CLOUDY    66  64  94 S6        29.97R FOG
TYLER          CLOUDY    66  63  90 S10       29.96R
6HR MIN TEMP:  64; 6HR MAX TEMP:  66;

LONGVIEW       CLOUDY    66  63  90 S8        29.97R
6HR MIN TEMP:  64; 6HR MAX TEMP:  66;

MARSHALL       CLOUDY    68  66  91 SW8       30.00R
6HR MIN TEMP:  66; 6HR MAX TEMP:  68;

ATHENS         CLOUDY    64  63  94 S7        29.96R
PALESTINE      CLOUDY    65  64  97 S3        29.99R
JACKSONVILLE   CLOUDY    64  63  94 S6        30.01R
NACOGDOCHES    CLOUDY    64  63  94 SE5       30.00R
6HR MIN TEMP:  64; 6HR MAX TEMP:  64;

LUFKIN         CLOUDY    67  63  87 CALM      29.99R
6HR MIN TEMP:  66; 6HR MAX TEMP:  67; 6HR PCP: TRACE;

$$

SUPPLEMENTAL OBSERVATIONS (CENTRAL)

CITY           SKY/WX    TMP DP  RH WIND       PRES   REMARKS
CADDO GRASSLND   N/A     64  61  88 S6          N/A
PAT MAYSE LAKE   N/A     64  63  94 S12         N/A
GREENVILLE       N/A     66  61  82 SW8         N/A
CEDAR HILL       N/A     64  61  88 S3          N/A
MCGREGOR         N/A     64  63  94 S8          N/A
TEMPLE           N/A     64  63  94 SE7         N/A
$$

SUPPLEMENTAL OBSERVATIONS (WEST)

CITY           SKY/WX    TMP DP  RH WIND       PRES   REMARKS
MILLERS CREEK    N/A     63  57  82 W5          N/A
POSSUM KINGDOM   N/A     59  55  88 E6          N/A
LBJ GRASSLAND    N/A     61  59  94 S6          N/A
GRANBURY         N/A     64  63  94 S7          N/A
HAMBY            N/A     61  54  77 W6          N/A
IVIE RESERVOIR   N/A     61  59  94 E5          N/A
COLORADO BEND    N/A    N/A N/A N/A SW5         N/A
$$

SUPPLEMENTAL OBSERVATIONS (EAST)



USA.gov is the U.S. government's official web portal to all federal, state and local government web resources and services.